Other Surface Observations
Issued by NWS Tucson, AZ

Home | Current Version | Previous Version | Text Only | Print | Product List | Glossary On
Versions: 1 2 3 4 5 6 7 8 9 10 11 12 13 14 15 16 17 18 19 20 21 22 23 24 25 26 27 28 29 30 31 32 33 34 35 36 37 38 39 40 41 42 43 44 45 46 47 48 49 50
575
SXUS55 KTWC 192015
OSOTWC

WEATHER ROUNDUP FOR SOUTHEAST ARIZONA
NATIONAL WEATHER SERVICE TUCSON AZ
115 PM MST THU OCT 19 2017

AZZ504>506-514-192115-
LOCATION       SKY/WX    TMP DP  RH WIND       PRES   REMARKS
TUCSON         FAIR      91  37  15 VRB6      29.89F
DAVIS-MONTHAN  PTSUNNY   90  34  13 VRB3      29.87F
CHILDRENS PARK N/A      N/A N/A  18 SE4               PIMA CO DEQ
ALVERNON/22ND  N/A       87 N/A N/A SW3               PIMA CO DEQ
CHERRY/GLENN   N/A       89 N/A N/A E3                PIMA CO DEQ
TANGERINE      N/A       85 N/A N/A SW4               PIMA CO DEQ
CONTL RANCH    N/A       88  36  16 N3                PIMA CO DEQ
GRANT/1ST      N/A       88  36  16 SE3               PIMA CO DEQ
CRAYCROFT/22ND N/A       86  36  17 N/A               PIMA CO DEQ
GOLFLINKS/KOLB N/A       87  37  17 SW3               PIMA CO DEQ
AJO/12TH       N/A       87  40  19 S2                PIMA CO DEQ
FAIRGROUNDS    N/A       69 N/A N/A N/A               PIMA CO DEQ
SAGUARO        N/A       91  39  16 CALM              *SABINO CYN
SAN CARLOS     N/A       80  43  27 W6G11             *SAN CARLOS
GREEN VALLEY   N/A       88  36  16 SW4               PIMA CO DEQ
HORSE CAMP CYN N/A       86  35  16 SW7G13            *ARAVAIPA CYN
RINCON MTNS    N/A       70  34  26 SW3G10            *NR MANNING CAMP
$$

AZZ509>511-192115-
LOCATION       SKY/WX    TMP DP  RH WIND       PRES   REMARKS
SAFFORD        FAIR      84  42  22 CALM      29.91F
STRAY HORSE    N/A       67  33  28 SW4G14            *
TRAIL CABIN    N/A       75  36  24 W4G12             *N OF GRANVILLE
BLACK HILLS    NOT AVBL
DRY LAKE       N/A       71  32  24 SW4G10            *NATANES MTNS
NOON CREEK     N/A       79  42  27 NE5G12            *PINALENO MTNS
COLUMBINE      N/A       60  34  37 W7G16             *PINALENO MTNS
GUTHRIE        N/A       72  43  35 SW4G12            *SW OF GUTHRIE
$$

AZZ502-503-513-192115-
LOCATION       SKY/WX    TMP DP  RH WIND       PRES   REMARKS
NOGALES        FAIR      88  36  15 W7        29.97F
SELLS          N/A       93  28  10 N3G12             *
SASABE         N/A       89  34  14 SW10G18           *ALTAR VLY
HOPKINS        N/A       72  33  24 W7G13             *SANTA RITA MTNS
CARR CYN       N/A       83  29  14 NE3               *W OF HEREFORD
$$

AZZ507-508-512-192115-
LOCATION       SKY/WX    TMP DP  RH WIND       PRES   REMARKS
SIERRA VISTA   CLOUDY    83  28  13 W16       30.02F
DOUGLAS        FAIR      85  30  13 S10       29.98F
EMPIRE MTNS    NOT AVBL
MULESHOE RANCH N/A       83  35  18 S4G12             *PRESERVE
HEADQUARTERS   N/A       80  28  15 W6G17             *CHIRICAHUA MTNS
$$

.............................NOTES.............................
THIS IS AN AUTOMATED COLLECTIVE WITH MINIMAL QUALITY CONTROL.
PIMA CO DEQ SITES HAVE NONSTANDARD WIND SENSOR HEIGHTS.
PIMA CO DEQ SITES DO NOT REPORT WIND GUSTS.
* INDICATES WIND SENSORS LOCATED AT 20 FEET INSTEAD OF 33 FEET.
..............................KEY..............................
SKY/WX - SKY CONDITION/WEATHER
TMP    - TEMPERATURE IN FAHRENHEIT
DP     - DEWPOINT IN FAHRENHEIT
RH     - RELATIVE HUMIDITY IN PERCENT
WIND   - DIRECTION AND SPEED IN MILES PER HOUR (MPH)
VRB    - VARIABLE WIND DIRECTION
PRES   - MEAN SEA LEVEL PRESSURE IN INCHES OF MERCURY
         F - FALLING PRESSURE   R - RISING PRESSURE
         S - STEADY PRESSURE
VSB    - VISIBILITY IN MILES
HX     - HEAT INDEX IN FAHRENHEIT
WCI    - WIND CHILL INDEX IN FAHRENHEIT
N/A    - NOT AVAILABLE
AFB    - AIR FORCE BASE
         DAVIS-MONTHAN IS DAVIS-MONTHAN AIR FORCE BASE
CYN    - CANYON
MTNS   - MOUNTAINS
NCA    - NATIONAL CONSERVATION AREA
NR     - NEAR
VLY    - VALLEY
CONTL  - CONTINENTAL
PIMA CO DEQ - PIMA COUNTY DEPT OF ENVIRONMENTAL QUALITY



USA.gov is the U.S. government's official web portal to all federal, state and local government web resources and services.